This is the latest recevied weather packets stored in our database for station/object SQ5RTW-1. If no packets are shown the sender has not sent any weather packets the latest 10 day(s).
| Time | Temp. | Humidity | Pressure | Rain* | Wind** | Luminosity | Snow |
|---|---|---|---|---|---|---|---|
| 1777479113 | 17.78° C | 26% | 1031.1 hPa | - | - | - | - |
| 1777478212 | 20° C | 24% | 1031.3 hPa | - | - | - | - |
| 1777477312 | 11.67° C | 37% | 1030.9 hPa | - | - | - | - |
| 1777476411 | 16.67° C | 32% | 1031.4 hPa | - | - | - | - |
| 1777475510 | 11.11° C | 38% | 1031 hPa | - | - | - | - |
| 1777474609 | 12.22° C | 35% | 1031 hPa | - | - | - | - |
| 1777473708 | 11.11° C | 35% | 1030.9 hPa | - | - | - | - |
| 1777472807 | 18.33° C | 28% | 1031.2 hPa | - | - | - | - |
| 1777471906 | 11.67° C | 36% | 1030.9 hPa | - | - | - | - |
| 1777471005 | 15.56° C | 31% | 1030.9 hPa | - | - | - | - |
| 1777470105 | 12.22° C | 32% | 1030.8 hPa | - | - | - | - |
| 1777469204 | 14.44° C | 31% | 1031.1 hPa | - | - | - | - |
| 1777468302 | 13.89° C | 35% | 1031 hPa | - | - | - | - |
| 1777467390 | 10.56° C | 37% | 1031.1 hPa | - | - | - | - |
| 1777466489 | 13.33° C | 35% | 1031.1 hPa | - | - | - | - |
| 1777466473 | 13.89° C | 35% | 1031.1 hPa | - | - | - | - |
| 1777466446 | 11.67° C | 35% | 1031.2 hPa | - | - | - | - |
| 1777465544 | 11.67° C | 35% | 1031.1 hPa | - | - | - | - |
| 1777464643 | 12.78° C | 37% | 1031 hPa | - | - | - | - |
| 1777464627 | 13.89° C | 37% | 1031 hPa | - | - | - | - |
| 1777464602 | 11.67° C | 36% | 1031.1 hPa | - | - | - | - |
| 1777463701 | 11.11° C | 37% | 1031.1 hPa | - | - | - | - |
| 1777462800 | 11.67° C | 37% | 1031.1 hPa | - | - | - | - |
| 1777461899 | 11.11° C | 40% | 1031.1 hPa | - | - | - | - |
| 1777460998 | 11.11° C | 42% | 1030.9 hPa | - | - | - | - |
* Rain since midnight (hover to see other rain measurements)
** Current wind speed in m/s (hover to see current wind gust speed)